Content
SEND FEEDBACK

Daily
Averages
Monthly
Summary
United States of America

GRAND RAPIDS, MINNESOTA


Home > North America > United States > Minnesota
Elevation: 1320 feet     Latitude: 47 12N     Longitude: 093 30W

WEATHER
 
SELECT A DAY
Number of Records: 476,531;   Date Range: 1/1/95 - 12/27/14
 
SHARE

PRINT THIS DATA

[ ← Previous Day ]
WEATHER ALMANAC - JANUARY 31, 2013
[ Next Day → ]
[ °C ]   °F
Weather ElementAverageHighLow
Temperature-5.1 °F1.4 °F (12:35 am)-18.4 °F (11:15 pm)
Dewpoint-11.4 °F-2.2 °F (12:35 am)-23.8 °F (10:35 pm)
Humidity74.3 %85 % (12:35 am)65 % (6:15 pm)
Barometer29.92 in30.13 in (11:15 pm)29.67 in (12:35 am)
Wind Speed15.2 mph23 mph (1:55 pm)
Wind Gust29.9 mph (10:35 am)
Weather ElementAverage
Visibility7.4 mi
Wind DirectionWNW (309 °)

Weather ElementTotal
Precipitation---
Heating Degree Days73.5 (Base 65)
Averaged from 71 records on January 31, 2013
WEATHER CONDITIONS BREAKOUT
WIND DIRECTION BREAKOUT
WEATHER BY HOUR - JANUARY 31, 2013
[ °C ]   °F
Local TimeTemperatureDewpointHumidityBarometerVisibilityWind DirectionWind SpeedGust SpeedPrecipitationEventsConditions
12:35 AM1.4 °F-2.2 °F85 %29.67 in10.0 miNW (310°)11.5 mph17.3 mphMostly Cloudy
12:55 AM1.4 °F-2.2 °F85 %29.68 in10.0 miNW (320°)13.8 mph18.4 mphScattered Clouds
1:15 AM1.4 °F-4.0 °F78 %29.69 in10.0 miNW (310°)15.0 mph20.7 mphClear
1:35 AM-0.4 °F-4.0 °F85 %29.69 in10.0 miNW (310°)12.7 mphMostly Cloudy
1:55 AM-0.4 °F-4.0 °F85 %29.70 in10.0 miNW (320°)16.1 mph19.6 mphOvercast
2:15 AM-0.4 °F-5.8 °F78 %29.71 in10.0 miNW (320°)15.0 mphOvercast
2:35 AM-0.4 °F-5.8 °F78 %29.71 in10.0 miNW (310°)15.0 mph19.6 mphOvercast
2:55 AM-0.4 °F-5.8 °F78 %29.71 in10.0 miNW (320°)15.0 mph21.9 mphOvercast
3:15 AM-0.4 °F-5.8 °F78 %29.72 in9.0 miNW (310°)12.7 mphOvercast
3:35 AM-0.4 °F-5.8 °F78 %29.72 in7.0 miNW (310°)12.7 mphOvercast
3:55 AM-0.4 °F-5.8 °F78 %29.73 in3.0 miNW (310°)13.8 mphOvercast
4:15 AM-0.4 °F-7.6 °F72 %29.74 in5.0 miNW (310°)16.1 mph19.6 mphOvercast
4:35 AM-2.2 °F-7.6 °F78 %29.74 in5.0 miNW (320°)15.0 mphOvercast
4:55 AM-2.2 °F-7.6 °F78 %29.75 in3.0 miNW (310°)17.3 mph20.7 mphOvercast
5:15 AM-2.2 °F-7.6 °F78 %29.76 in4.0 miNW (320°)16.1 mph23.0 mphOvercast
5:35 AM-2.2 °F-9.4 °F71 %29.76 in5.0 miNW (310°)15.0 mphOvercast
5:55 AM-2.2 °F-9.4 °F71 %29.77 in5.0 miNW (320°)16.1 mphOvercast
6:15 AM-4.0 °F-9.4 °F78 %29.78 in7.0 miNW (310°)16.1 mphOvercast
6:35 AM-4.0 °F-9.4 °F78 %29.78 in9.0 miNW (310°)15.0 mph19.6 mphOvercast
6:55 AM-4.0 °F-9.4 °F78 %29.80 in9.0 miNW (310°)12.7 mphMostly Cloudy
7:15 AM-4.0 °F-9.4 °F78 %29.80 in7.0 miNW (310°)13.8 mphOvercast
7:35 AM-4.0 °F-9.4 °F78 %29.82 in5.0 miNW (310°)15.0 mphOvercast
7:55 AM-4.0 °F-9.4 °F78 %29.83 in3.0 miNW (310°)15.0 mph20.7 mphOvercast
8:15 AM-5.8 °F-9.4 °F84 %29.84 in4.0 miNW (320°)13.8 mph20.7 mphOvercast
8:35 AM-5.8 °F-9.4 °F84 %29.86 in9.0 miNW (310°)13.8 mphMostly Cloudy
8:55 AM-5.8 °F-9.4 °F84 %29.86 in10.0 miNW (310°)12.7 mph21.9 mphMostly Cloudy
9:15 AM-5.8 °F-11.2 °F77 %29.88 in10.0 miNW (310°)16.1 mph21.9 mphPartly Cloudy
9:35 AM-5.8 °F-11.2 °F77 %29.89 in5.0 miNW (320°)17.3 mph27.6 mphMostly Cloudy
9:55 AM-4.0 °F-9.4 °F78 %29.90 in3.0 miNW (310°)18.4 mph24.2 mphOvercast
10:15 AM-4.0 °F-11.2 °F71 %29.90 in5.0 miNW (310°)20.7 mph26.5 mphMostly Cloudy
10:35 AM-4.0 °F-11.2 °F71 %29.92 in5.0 miNW (320°)20.7 mph29.9 mphMostly Cloudy
10:55 AM-2.2 °F-9.4 °F71 %29.92 in7.0 miNW (310°)17.3 mph23.0 mphMostly Cloudy
11:15 AM-2.2 °F-9.4 °F71 %29.93 in10.0 miNW (320°)16.1 mphPartly Cloudy
11:35 AM-2.2 °F-9.4 °F71 %29.93 in7.0 miNW (320°)20.7 mph26.5 mphMostly Cloudy
11:55 AM-2.2 °F-9.4 °F71 %29.94 in9.0 miNW (320°)19.6 mph24.2 mphMostly Cloudy
12:15 PM-2.2 °F-9.4 °F71 %29.94 in7.0 miNW (320°)20.7 mphMostly Cloudy
12:35 PM-0.4 °F-9.4 °F66 %29.94 in10.0 miNNW (330°)18.4 mph25.3 mphMostly Cloudy
12:55 PM-0.4 °F-7.6 °F72 %29.94 in9.0 miNW (320°)15.0 mph24.2 mphMostly Cloudy
1:15 PM-0.4 °F-9.4 °F66 %29.94 in9.0 miNW (320°)19.6 mph26.5 mphMostly Cloudy
1:35 PM-0.4 °F-7.6 °F72 %29.95 in9.0 miNW (310°)15.0 mphMostly Cloudy
1:55 PM-0.4 °F-7.6 °F72 %29.96 in6.0 miNW (320°)23.0 mph28.8 mphScattered Clouds
2:15 PM-0.4 °F-9.4 °F66 %29.96 in9.0 miNW (320°)15.0 mph26.5 mphPartly Cloudy
2:35 PM-0.4 °F-9.4 °F66 %29.97 in9.0 miNW (320°)18.4 mph26.5 mphClear
2:55 PM-0.4 °F-9.4 °F66 %29.97 in9.0 miNW (320°)20.7 mph26.5 mphScattered Clouds
3:15 PM-0.4 °F-9.4 °F66 %29.99 in10.0 miNW (320°)20.7 mphMostly Cloudy
3:35 PM-0.4 °F-9.4 °F66 %30.00 in8.0 miWNW (290°)16.1 mph20.7 mphScattered Clouds
3:55 PM-2.2 °F-9.4 °F71 %30.01 in8.0 miWNW (290°)16.1 mphMostly Cloudy
4:15 PM-2.2 °F-9.4 °F71 %30.02 in10.0 miWNW (300°)12.7 mphScattered Clouds
4:35 PM-2.2 °F-9.4 °F71 %30.02 in10.0 miWNW (300°)13.8 mphPartly Cloudy
4:55 PM-2.2 °F-11.2 °F66 %30.03 in10.0 miWNW (290°)16.1 mph21.9 mphMostly Cloudy
5:15 PM-4.0 °F-11.2 °F71 %30.04 in10.0 miWNW (300°)12.7 mphScattered Clouds
5:35 PM-5.8 °F-13.0 °F71 %30.05 in10.0 miNW (310°)15.0 mph21.9 mphClear
5:55 PM-5.8 °F-13.0 °F71 %30.06 in10.0 miWNW (290°)13.8 mph21.9 mphClear
6:15 PM-5.8 °F-14.8 °F65 %30.07 in10.0 miWNW (300°)12.7 mph17.3 mphClear
6:35 PM-7.6 °F-14.8 °F71 %30.07 in9.0 miWNW (300°)17.3 mph24.2 mphScattered Clouds
6:55 PM-9.4 °F-16.6 °F71 %30.08 in6.0 miWNW (300°)15.0 mph20.7 mphOvercast
7:15 PM-9.4 °F-16.6 °F71 %30.08 in4.0 miWNW (300°)12.7 mphOvercast
7:35 PM-11.2 °F-18.4 °F70 %30.09 in4.0 miWNW (300°)12.7 mph20.7 mphOvercast
7:55 PM-11.2 °F-18.4 °F70 %30.09 in4.0 miWNW (300°)13.8 mph20.7 mphOvercast
8:15 PM-11.2 °F-18.4 °F70 %30.10 in3.0 miWNW (290°)10.4 mph20.7 mphOvercast
8:35 PM-13.0 °F-20.2 °F70 %30.10 in3.0 miWNW (290°)11.5 mph17.3 mphOvercast
8:55 PM-14.8 °F-20.2 °F77 %30.10 in3.0 miWNW (290°)10.4 mphOvercast
9:15 PM-14.8 °F-20.2 °F77 %30.11 in3.0 miWNW (300°)11.5 mph17.3 mphOvercast
9:35 PM-14.8 °F-20.2 °F77 %30.11 in3.0 miWNW (300°)16.1 mph20.7 mphOvercast
9:55 PM-16.6 °F-20.2 °F84 %30.12 in4.0 miWNW (300°)12.7 mph19.6 mphOvercast
10:15 PM-16.6 °F-20.2 °F84 %30.12 in7.0 miNW (310°)13.8 mph23.0 mphPartly Cloudy
10:35 PM-16.6 °F-23.8 °F70 %30.12 in10.0 miNW (310°)11.5 mph19.6 mphClear
10:55 PM-16.6 °F-23.8 °F70 %30.12 in10.0 miWNW (300°)13.8 mphClear
11:15 PM-18.4 °F-23.8 °F76 %30.13 in10.0 miWNW (300°)9.2 mphClear
11:35 PM-18.4 °F-23.8 °F76 %30.13 in10.0 miWNW (300°)11.5 mphClear
11:55 PM-18.4 °F-23.8 °F76 %30.13 in10.0 miWNW (300°)13.8 mph17.3 mphClear
Hourly data recorded from KGPZ, located miles away from Grand Rapids, Minnesota







STORIES FROM OUR PARTNERS